AJM1 RCTP-VHHX

Flight info

Callsign AJM1
Flight time 1h 22m
Altitude 36000
Route CHALI1A CHALI T3 MKG A1 ELATO
Aircraft B738/M-SDE2E3FGHIRWXY/LB1

Departure

Time 2026-05-04 22:04
Airport Taiwan Taoyuan International Airport (RCTP)

Arrival

Time 2026-05-04 23:26
Airport Hong Kong International Airport Kai Tak (VHHX)
Time Latitude Longitude Altitude Speed Heading
2026-05-04 21:44 25.07596 121.23424 115 ft 0 kts 320°
2026-05-04 21:52 25.07588 121.23431 115 ft 2 kts 319°
2026-05-04 21:52 25.07577 121.23442 115 ft 2 kts 320°
2026-05-04 21:52 25.07565 121.23453 115 ft 2 kts 320°
2026-05-04 21:53 25.07554 121.23463 115 ft 1 kts 319°
2026-05-04 21:53 25.07547 121.23470 115 ft 2 kts 316°
2026-05-04 21:53 25.07538 121.23483 115 ft 2 kts 299°
2026-05-04 21:53 25.07531 121.23498 115 ft 2 kts 286°
2026-05-04 21:54 25.07529 121.23515 115 ft 2 kts 272°
2026-05-04 21:54 25.07529 121.23531 115 ft 2 kts 258°
2026-05-04 21:54 25.07534 121.23547 115 ft 2 kts 245°
2026-05-04 21:54 25.07541 121.23561 115 ft 1 kts 232°
2026-05-04 21:55 25.07545 121.23566 115 ft 1 kts 227°
2026-05-04 21:55 25.07546 121.23567 115 ft 0 kts 228°
2026-05-04 21:57 25.07534 121.23553 115 ft 3 kts 230°
2026-05-04 21:57 25.07509 121.23520 115 ft 7 kts 229°
2026-05-04 21:57 25.07474 121.23474 115 ft 8 kts 229°
2026-05-04 21:57 25.07431 121.23419 115 ft 9 kts 229°
2026-05-04 21:58 25.07390 121.23367 115 ft 8 kts 229°
2026-05-04 21:58 25.07352 121.23319 115 ft 7 kts 229°
2026-05-04 21:58 25.07317 121.23275 115 ft 7 kts 229°
2026-05-04 21:58 25.07285 121.23233 115 ft 7 kts 229°
2026-05-04 21:59 25.07252 121.23193 115 ft 7 kts 221°
2026-05-04 21:59 25.07196 121.23187 115 ft 8 kts 153°
2026-05-04 21:59 25.07130 121.23201 115 ft 11 kts 207°
2026-05-04 21:59 25.07063 121.23126 115 ft 15 kts 230°
2026-05-04 22:00 25.06988 121.23029 115 ft 17 kts 229°
2026-05-04 22:00 25.06903 121.22920 115 ft 19 kts 229°
2026-05-04 22:00 25.06816 121.22810 115 ft 18 kts 229°
2026-05-04 22:00 25.06734 121.22707 115 ft 17 kts 229°
2026-05-04 22:01 25.06656 121.22607 115 ft 16 kts 229°
2026-05-04 22:01 25.06580 121.22512 115 ft 16 kts 229°
2026-05-04 22:01 25.06509 121.22423 115 ft 15 kts 228°
2026-05-04 22:01 25.06442 121.22336 115 ft 14 kts 230°
2026-05-04 22:02 25.06375 121.22260 115 ft 13 kts 206°
2026-05-04 22:02 25.06301 121.22288 115 ft 11 kts 136°
2026-05-04 22:02 25.06245 121.22347 115 ft 10 kts 136°
2026-05-04 22:02 25.06193 121.22401 115 ft 9 kts 136°
2026-05-04 22:03 25.06172 121.22459 115 ft 7 kts 64°
2026-05-04 22:03 25.06189 121.22485 115 ft 0 kts 49°
2026-05-04 22:03 25.06194 121.22490 115 ft 11 kts 49°
2026-05-04 22:03 25.06421 121.22779 115 ft 84 kts 49°
2026-05-04 22:04 25.06946 121.23444 115 ft 143 kts 49°
2026-05-04 22:04 25.07678 121.24377 368 ft 168 kts 50°
2026-05-04 22:04 25.08407 121.25359 1086 ft 167 kts 52°
2026-05-04 22:04 25.09157 121.26353 1560 ft 173 kts 51°
2026-05-04 22:05 25.09949 121.27362 2028 ft 182 kts 51°
2026-05-04 22:05 25.10811 121.28477 2523 ft 199 kts 50°
2026-05-04 22:05 25.11727 121.29665 3134 ft 211 kts 47°
2026-05-04 22:05 25.12953 121.30650 3611 ft 227 kts 18°
2026-05-04 22:06 25.14569 121.30779 4080 ft 245 kts 347°
2026-05-04 22:06 25.16150 121.30032 4719 ft 257 kts 324°
2026-05-04 22:06 25.17494 121.28676 5326 ft 269 kts 308°
2026-05-04 22:06 25.18686 121.27043 6016 ft 280 kts 305°
2026-05-04 22:07 25.19886 121.25333 6901 ft 283 kts 304°
2026-05-04 22:07 25.21091 121.23664 7896 ft 281 kts 305°
2026-05-04 22:07 25.22323 121.21995 8821 ft 281 kts 305°
2026-05-04 22:07 25.23550 121.20351 9687 ft 282 kts 306°
2026-05-04 22:08 25.24796 121.18687 10499 ft 284 kts 305°
2026-05-04 22:08 25.26074 121.16944 11023 ft 297 kts 302°
2026-05-04 22:08 25.27133 121.14958 11452 ft 308 kts 288°
2026-05-04 22:08 25.27566 121.12632 11901 ft 317 kts 270°
2026-05-04 22:09 25.27322 121.10181 12335 ft 330 kts 256°
2026-05-04 22:09 25.26539 121.07762 12751 ft 344 kts 245°
2026-05-04 22:09 25.25363 121.05414 13218 ft 355 kts 241°
2026-05-04 22:09 25.24059 121.03075 13941 ft 358 kts 240°
2026-05-04 22:10 25.22747 121.00752 14577 ft 362 kts 240°
2026-05-04 22:10 25.21423 120.98377 15284 ft 364 kts 240°
2026-05-04 22:10 25.20117 120.95995 15983 ft 365 kts 240°
2026-05-04 22:10 25.18823 120.93601 16628 ft 368 kts 241°
2026-05-04 22:11 25.17515 120.91163 17299 ft 369 kts 241°
2026-05-04 22:11 25.16197 120.88708 17940 ft 371 kts 241°
2026-05-04 22:11 25.14876 120.86248 18470 ft 375 kts 240°
2026-05-04 22:11 25.13550 120.83779 19062 ft 377 kts 241°
2026-05-04 22:12 25.12214 120.81288 19578 ft 381 kts 240°
2026-05-04 22:12 25.10852 120.78757 20129 ft 384 kts 240°
2026-05-04 22:12 25.09485 120.76227 20664 ft 386 kts 240°
2026-05-04 22:12 25.08118 120.73699 21169 ft 389 kts 240°
2026-05-04 22:13 25.06727 120.71127 21776 ft 389 kts 240°
2026-05-04 22:13 25.05354 120.68584 22321 ft 390 kts 240°
2026-05-04 22:13 25.03959 120.66000 22915 ft 390 kts 240°
2026-05-04 22:13 25.02584 120.63457 23489 ft 390 kts 240°
2026-05-04 22:14 25.01191 120.60880 24067 ft 390 kts 240°
2026-05-04 22:14 24.99824 120.58355 24700 ft 388 kts 240°
2026-05-04 22:14 24.98442 120.55803 25206 ft 390 kts 240°
2026-05-04 22:14 24.97051 120.53233 25624 ft 393 kts 240°
2026-05-04 22:15 24.95634 120.50617 26041 ft 396 kts 240°
2026-05-04 22:15 24.94232 120.48032 26581 ft 395 kts 240°
2026-05-04 22:15 24.92839 120.45461 27186 ft 393 kts 240°
2026-05-04 22:15 24.91443 120.42884 27928 ft 386 kts 240°
2026-05-04 22:16 24.90085 120.40382 28602 ft 381 kts 240°
2026-05-04 22:16 24.88734 120.37893 29161 ft 379 kts 241°
2026-05-04 22:16 24.87371 120.35382 29594 ft 380 kts 241°
2026-05-04 22:16 24.86034 120.32918 30076 ft 378 kts 240°
2026-05-04 22:17 24.84673 120.30413 30581 ft 377 kts 240°
2026-05-04 22:17 24.83336 120.27951 31058 ft 375 kts 241°
2026-05-04 22:17 24.82000 120.25494 31522 ft 374 kts 241°
2026-05-04 22:17 24.80675 120.23058 31887 ft 374 kts 241°
2026-05-04 22:18 24.79341 120.20606 32227 ft 376 kts 242°
2026-05-04 22:18 24.78000 120.18140 32449 ft 379 kts 242°
2026-05-04 22:18 24.76643 120.15643 32657 ft 383 kts 242°
2026-05-04 22:18 24.75271 120.13130 33054 ft 382 kts 242°
2026-05-04 22:19 24.73912 120.10644 33599 ft 378 kts 242°
2026-05-04 22:19 24.72543 120.08141 34005 ft 378 kts 242°
2026-05-04 22:19 24.71196 120.05675 34331 ft 378 kts 243°
2026-05-04 22:19 24.69844 120.03201 34617 ft 379 kts 242°
2026-05-04 22:20 24.68494 120.00732 34945 ft 379 kts 242°
2026-05-04 22:20 24.67134 119.98245 35313 ft 378 kts 243°
2026-05-04 22:20 24.65775 119.95763 35553 ft 380 kts 243°
2026-05-04 22:21 24.63010 119.90709 35766 ft 389 kts 243°
2026-05-04 22:21 24.61620 119.88176 36007 ft 389 kts 243°
2026-05-04 22:21 24.60215 119.85618 36020 ft 394 kts 243°
2026-05-04 22:22 24.57331 119.80366 36016 ft 404 kts 243°
2026-05-04 22:22 24.54426 119.75085 36008 ft 408 kts 243°
2026-05-04 22:23 24.51476 119.69735 36013 ft 409 kts 243°
2026-05-04 22:23 24.48537 119.64407 36012 ft 408 kts 243°
2026-05-04 22:24 24.45603 119.59094 36015 ft 409 kts 243°
2026-05-04 22:24 24.42656 119.53761 36018 ft 409 kts 243°
2026-05-04 22:25 24.39692 119.48405 36020 ft 410 kts 243°
2026-05-04 22:25 24.36745 119.43084 36017 ft 410 kts 243°
2026-05-04 22:26 24.33786 119.37743 36019 ft 410 kts 243°
2026-05-04 22:26 24.30827 119.32411 36019 ft 411 kts 242°
2026-05-04 22:27 24.27847 119.27048 36022 ft 410 kts 242°
2026-05-04 22:27 24.24885 119.21722 36026 ft 410 kts 242°
2026-05-04 22:28 24.21923 119.16402 36028 ft 412 kts 243°
2026-05-04 22:28 24.18934 119.11038 36020 ft 411 kts 243°
2026-05-04 22:29 24.16154 119.05584 36021 ft 409 kts 246°
2026-05-04 22:29 24.13633 119.00015 36030 ft 410 kts 247°
2026-05-04 22:30 24.11127 118.94451 36029 ft 411 kts 247°
2026-05-04 22:30 24.08578 118.88883 36029 ft 410 kts 246°
2026-05-04 22:31 24.05995 118.83305 36030 ft 411 kts 246°
2026-05-04 22:31 24.03398 118.77734 36032 ft 411 kts 246°
2026-05-04 22:32 24.00797 118.72171 36028 ft 412 kts 246°
2026-05-04 22:32 23.98179 118.66582 36027 ft 412 kts 246°
2026-05-04 22:33 23.95585 118.61050 36029 ft 410 kts 246°
2026-05-04 22:33 23.92966 118.55471 36027 ft 412 kts 246°
2026-05-04 22:34 23.90365 118.49935 36022 ft 413 kts 246°
2026-05-04 22:34 23.87730 118.44333 36028 ft 413 kts 246°
2026-05-04 22:35 23.85112 118.38777 36030 ft 413 kts 246°
2026-05-04 22:35 23.82488 118.33216 36028 ft 413 kts 246°
2026-05-04 22:36 23.79844 118.27616 36019 ft 413 kts 246°
2026-05-04 22:36 23.77213 118.22052 36015 ft 413 kts 246°
2026-05-04 22:37 23.74586 118.16502 36016 ft 414 kts 246°
2026-05-04 22:37 23.71944 118.10931 36026 ft 414 kts 246°
2026-05-04 22:38 23.69305 118.05367 36019 ft 414 kts 246°
2026-05-04 22:38 23.66656 117.99791 36026 ft 414 kts 246°
2026-05-04 22:39 23.64006 117.94217 36022 ft 415 kts 246°
2026-05-04 22:39 23.61364 117.88666 36025 ft 415 kts 246°
2026-05-04 22:40 23.58705 117.83088 36025 ft 414 kts 246°
2026-05-04 22:40 23.56055 117.77533 36036 ft 416 kts 246°
2026-05-04 22:41 23.53374 117.71919 36031 ft 415 kts 246°
2026-05-04 22:41 23.50713 117.66359 36033 ft 415 kts 246°
2026-05-04 22:42 23.48057 117.60813 36036 ft 416 kts 246°
2026-05-04 22:42 23.45379 117.55229 36028 ft 416 kts 246°
2026-05-04 22:43 23.42695 117.49637 36032 ft 416 kts 246°
2026-05-04 22:43 23.40009 117.44045 36023 ft 417 kts 246°
2026-05-04 22:44 23.37328 117.38472 36026 ft 417 kts 246°
2026-05-04 22:44 23.34625 117.32858 36029 ft 418 kts 246°
2026-05-04 22:45 23.31938 117.27287 36030 ft 417 kts 246°
2026-05-04 22:45 23.27896 117.18917 36034 ft 418 kts 246°
2026-05-04 22:46 23.25195 117.13332 36032 ft 417 kts 246°
2026-05-04 22:46 23.22489 117.07742 36031 ft 418 kts 246°
2026-05-04 22:47 23.19786 117.02164 36034 ft 418 kts 246°
2026-05-04 22:47 23.17089 116.96605 36033 ft 418 kts 246°
2026-05-04 22:48 23.14364 116.90993 36031 ft 419 kts 246°
2026-05-04 22:48 23.11649 116.85408 36030 ft 418 kts 246°
2026-05-04 22:49 23.08936 116.79838 36029 ft 419 kts 246°
2026-05-04 22:49 23.06211 116.74246 36032 ft 418 kts 246°
2026-05-04 22:50 23.03501 116.68692 36029 ft 419 kts 246°
2026-05-04 22:50 23.00763 116.63088 36029 ft 419 kts 246°
2026-05-04 22:51 22.98040 116.57518 36028 ft 419 kts 246°
2026-05-04 22:51 22.95303 116.51929 36025 ft 420 kts 246°
2026-05-04 22:52 22.92557 116.46326 36027 ft 420 kts 246°
2026-05-04 22:52 22.89825 116.40758 36027 ft 420 kts 246°
2026-05-04 22:53 22.87060 116.35129 36021 ft 422 kts 246°
2026-05-04 22:53 22.84306 116.29530 36023 ft 422 kts 245°
2026-05-04 22:54 22.81552 116.23937 36021 ft 422 kts 245°
2026-05-04 22:54 22.78787 116.18327 36021 ft 423 kts 245°
2026-05-04 22:55 22.76013 116.12704 36026 ft 422 kts 245°
2026-05-04 22:55 22.73238 116.07084 36025 ft 423 kts 245°
2026-05-04 22:56 22.70481 116.01511 36023 ft 423 kts 245°
2026-05-04 22:56 22.67691 115.95875 36023 ft 424 kts 245°
2026-05-04 22:57 22.64925 115.90293 36020 ft 424 kts 245°
2026-05-04 22:57 22.62128 115.84659 36025 ft 423 kts 245°
2026-05-04 22:58 22.59342 115.79048 36030 ft 424 kts 245°
2026-05-04 22:58 22.56562 115.73460 36029 ft 424 kts 245°
2026-05-04 22:59 22.53758 115.67829 36027 ft 423 kts 246°
2026-05-04 22:59 22.52387 115.65080 35919 ft 417 kts 245°
2026-05-04 22:59 22.51008 115.62318 35633 ft 412 kts 245°
2026-05-04 23:00 22.49659 115.59618 35360 ft 408 kts 245°
2026-05-04 23:00 22.48316 115.56927 35088 ft 408 kts 245°
2026-05-04 23:00 22.46976 115.54239 34817 ft 410 kts 245°
2026-05-04 23:00 22.45616 115.51511 34540 ft 411 kts 245°
2026-05-04 23:01 22.44254 115.48785 34265 ft 410 kts 245°
2026-05-04 23:01 22.42898 115.46072 33993 ft 411 kts 245°
2026-05-04 23:01 22.41535 115.43344 33716 ft 412 kts 245°
2026-05-04 23:01 22.40189 115.40655 33447 ft 411 kts 245°
2026-05-04 23:02 22.38820 115.37924 33169 ft 410 kts 245°
2026-05-04 23:02 22.37461 115.35211 32521 ft 415 kts 245°
2026-05-04 23:02 22.36091 115.32476 31719 ft 417 kts 245°
2026-05-04 23:02 22.34702 115.29708 30850 ft 419 kts 245°
2026-05-04 23:03 22.33329 115.26971 29943 ft 422 kts 245°
2026-05-04 23:03 22.31930 115.24186 28991 ft 425 kts 245°
2026-05-04 23:03 22.30527 115.21390 28036 ft 429 kts 245°
2026-05-04 23:03 22.29120 115.18549 27014 ft 432 kts 245°
2026-05-04 23:04 22.27879 115.15649 26166 ft 421 kts 250°
2026-05-04 23:04 22.26883 115.12687 25492 ft 417 kts 254°
2026-05-04 23:04 22.26123 115.09705 24791 ft 413 kts 257°
2026-05-04 23:04 22.25502 115.06692 24042 ft 412 kts 259°
2026-05-04 23:05 22.24944 115.03657 23281 ft 411 kts 259°
2026-05-04 23:05 22.24418 115.00651 22546 ft 410 kts 259°
2026-05-04 23:05 22.23900 114.97651 21786 ft 407 kts 259°
2026-05-04 23:05 22.23406 114.94702 21122 ft 398 kts 261°
2026-05-04 23:06 22.23099 114.91743 20410 ft 397 kts 265°
2026-05-04 23:06 22.22968 114.88799 19699 ft 397 kts 268°
2026-05-04 23:06 22.22922 114.85841 18946 ft 397 kts 269°
2026-05-04 23:06 22.22911 114.82883 18197 ft 397 kts 269°
2026-05-04 23:07 22.22907 114.79916 17459 ft 396 kts 269°
2026-05-04 23:07 22.22898 114.76957 16717 ft 396 kts 269°
2026-05-04 23:07 22.22879 114.74006 15979 ft 395 kts 269°
2026-05-04 23:07 22.22850 114.71066 15318 ft 391 kts 268°
2026-05-04 23:08 22.22816 114.68155 14838 ft 373 kts 268°
2026-05-04 23:08 22.22781 114.65477 14694 ft 347 kts 268°
2026-05-04 23:08 22.22746 114.62931 14530 ft 333 kts 268°
2026-05-04 23:08 22.22713 114.60477 14352 ft 320 kts 268°
2026-05-04 23:09 22.22682 114.58115 14168 ft 309 kts 268°
2026-05-04 23:09 22.22651 114.55840 13994 ft 298 kts 268°
2026-05-04 23:09 22.22620 114.53639 14000 ft 287 kts 268°
2026-05-04 23:09 22.22590 114.51511 13999 ft 289 kts 268°
2026-05-04 23:10 22.22559 114.49326 13997 ft 291 kts 268°
2026-05-04 23:10 22.22527 114.47139 13996 ft 291 kts 268°
2026-05-04 23:10 22.22497 114.44979 13998 ft 290 kts 268°
2026-05-04 23:10 22.22467 114.42801 13995 ft 289 kts 268°
2026-05-04 23:11 22.22438 114.40648 13802 ft 284 kts 268°
2026-05-04 23:11 22.22409 114.38526 13429 ft 282 kts 268°
2026-05-04 23:11 22.22380 114.36423 13037 ft 281 kts 268°
2026-05-04 23:11 22.22352 114.34329 12649 ft 280 kts 268°
2026-05-04 23:12 22.22324 114.32238 12264 ft 278 kts 268°
2026-05-04 23:12 22.22295 114.30145 11881 ft 277 kts 268°
2026-05-04 23:12 22.22266 114.28074 11494 ft 276 kts 268°
2026-05-04 23:12 22.22244 114.26019 11118 ft 275 kts 268°
2026-05-04 23:13 22.22223 114.23968 10739 ft 274 kts 268°
2026-05-04 23:13 22.22201 114.21920 10361 ft 273 kts 268°
2026-05-04 23:13 22.22174 114.19871 10030 ft 270 kts 268°
2026-05-04 23:13 22.22145 114.17880 9852 ft 262 kts 268°
2026-05-04 23:14 22.22115 114.15931 9462 ft 263 kts 268°
2026-05-04 23:14 22.22081 114.13953 9111 ft 261 kts 268°
2026-05-04 23:14 22.22047 114.12007 8776 ft 260 kts 268°
2026-05-04 23:14 22.22015 114.10053 8424 ft 259 kts 268°
2026-05-04 23:15 22.21984 114.08122 8235 ft 251 kts 268°
2026-05-04 23:15 22.21955 114.06283 8170 ft 240 kts 268°
2026-05-04 23:15 22.21927 114.04494 8095 ft 239 kts 268°
2026-05-04 23:15 22.21896 114.02730 8000 ft 234 kts 268°
2026-05-04 23:16 22.21847 114.00973 7691 ft 233 kts 267°
2026-05-04 23:16 22.21786 113.99231 7383 ft 231 kts 267°
2026-05-04 23:16 22.21727 113.97523 7106 ft 226 kts 267°
2026-05-04 23:16 22.21670 113.95854 6847 ft 222 kts 267°
2026-05-04 23:17 22.21615 113.94194 6584 ft 219 kts 267°
2026-05-04 23:17 22.21560 113.92557 6285 ft 218 kts 267°
2026-05-04 23:17 22.21505 113.90934 6031 ft 214 kts 267°
2026-05-04 23:17 22.21506 113.89372 5912 ft 206 kts 279°
2026-05-04 23:18 22.22118 113.88026 5774 ft 199 kts 313°
2026-05-04 23:18 22.23269 113.87196 5631 ft 199 kts 335°
2026-05-04 23:18 22.24612 113.86804 5475 ft 201 kts 355°
2026-05-04 23:18 22.25982 113.87087 5332 ft 203 kts 28°
2026-05-04 23:19 22.27072 113.88049 5190 ft 203 kts 53°
2026-05-04 23:19 22.27825 113.89303 5041 ft 195 kts 57°
2026-05-04 23:19 22.28694 113.90404 4907 ft 193 kts 44°
2026-05-04 23:19 22.29694 113.91371 4770 ft 191 kts 42°
2026-05-04 23:20 22.30661 113.92320 4629 ft 182 kts 44°
2026-05-04 23:20 22.31481 113.93319 4508 ft 173 kts 61°
2026-05-04 23:20 22.31775 113.94559 4492 ft 173 kts 90°
2026-05-04 23:20 22.31790 113.95862 4419 ft 177 kts 89°
2026-05-04 23:21 22.31858 113.97180 4158 ft 176 kts 86°
2026-05-04 23:21 22.31951 113.98495 3909 ft 172 kts 86°
2026-05-04 23:21 22.32037 113.99770 3667 ft 169 kts 86°
2026-05-04 23:21 22.32114 114.01030 3442 ft 167 kts 87°
2026-05-04 23:22 22.32192 114.02284 3208 ft 165 kts 87°
2026-05-04 23:22 22.32272 114.03516 2984 ft 163 kts 87°
2026-05-04 23:22 22.32352 114.04724 2762 ft 160 kts 86°
2026-05-04 23:22 22.32430 114.05919 2538 ft 157 kts 86°
2026-05-04 23:23 22.32492 114.07064 2362 ft 150 kts 86°
2026-05-04 23:23 22.32558 114.08215 2133 ft 153 kts 86°
2026-05-04 23:23 22.32629 114.09340 1933 ft 148 kts 86°
2026-05-04 23:23 22.32702 114.10464 1723 ft 151 kts 86°
2026-05-04 23:24 22.32774 114.11579 1501 ft 148 kts 86°
2026-05-04 23:24 22.32846 114.12681 1305 ft 148 kts 86°
2026-05-04 23:24 22.32927 114.13792 1108 ft 148 kts 85°
2026-05-04 23:24 22.33004 114.14893 905 ft 148 kts 85°
2026-05-04 23:25 22.33078 114.16002 716 ft 146 kts 85°
2026-05-04 23:25 22.33178 114.17094 545 ft 145 kts 85°
2026-05-04 23:25 22.33085 114.18161 416 ft 143 kts 104°
2026-05-04 23:25 22.32617 114.19122 219 ft 147 kts 126°
2026-05-04 23:26 22.31925 114.19922 37 ft 144 kts 130°
2026-05-04 23:26 22.31362 114.20554 34 ft 78 kts 135°
2026-05-04 23:26 22.31066 114.20882 34 ft 48 kts 134°
2026-05-04 23:26 22.30938 114.21036 34 ft 13 kts 82°
2026-05-04 23:27 22.31005 114.21089 34 ft 12 kts 340°
2026-05-04 23:27 22.31069 114.21027 34 ft 12 kts 313°
2026-05-04 23:27 22.31132 114.20956 34 ft 15 kts 314°
2026-05-04 23:27 22.31232 114.20844 34 ft 21 kts 313°
2026-05-04 23:28 22.31331 114.20733 34 ft 20 kts 314°
2026-05-04 23:28 22.31427 114.20624 33 ft 18 kts 313°
2026-05-04 23:28 22.31491 114.20591 34 ft 9 kts 29°
2026-05-04 23:28 22.31550 114.20644 42 ft 13 kts 43°
2026-05-04 23:29 22.31620 114.20716 40 ft 15 kts 43°
2026-05-04 23:29 22.31701 114.20776 34 ft 9 kts 43°
2026-05-04 23:29 22.31714 114.20790 34 ft 1 kts 44°
2026-05-04 23:29 22.31721 114.20797 34 ft 2 kts 45°